Flag for Indonesia Weather past 2 weeks in Medan, North Sumatra, Indonesia

Now
81 °F

Passing clouds.


Feels Like: 88 °F
Forecast: 77 / 89 °F
Wind: 6 mph from West

Location: Medan / Polonia

Current Time: Sep 5, 2015 at 12:38:48 AM

Latest Report: Sep 5, 2015 at 12:00 AM


Visibility: 1 mi

Pressure: 29.92 "Hg

Humidity: 94%

Dew point: 79 °F

Location of MedanLocation

Historic Weather in Medan — Graph

°F

Medan temperature yesterday

Maximum temperature yesterday: 91 °F (at 2:30 PM)
Minimum temperature yesterday: 77 °F (at 7:00 AM)
Average temperature yesterday: 83 °F

Past Weeks' High & Low Weather Summary

 TemperatureHumidityPressure
High95 °F (Aug 28, 1:00 PM)100% (Aug 20, 11:30 PM)29.92 "Hg (Aug 20, 11:30 PM)
Low75 °F (Aug 22, 10:00 PM)44% (Sep 3, 3:30 PM)29.71 "Hg (Aug 22, 4:30 PM)
Average83 °F87%29.82 "Hg
* Reported Aug 20 11:00 PM — Sep 4 11:00 PM, Medan, Weather by CustomWeather, © 2015

Note: Actual official high and low records may vary slightly from our data, if they occured in-between our weather recording intervals... More about our weather records

Advertising

Medan weather history for previous 24 hours

 ConditionsComfort  
Time TempWeatherWind HumidityBarometerVisibility
11:00 PM
Fri, Sep 4
81 °FOvercast.3 mph94%29.92 "Hg1 mi
10:30 PM81 °FPassing clouds.2 mph100%29.92 "Hg1 mi
10:00 PM81 °FPassing clouds.2 mph100%29.92 "Hg1 mi
9:30 PM81 °FMostly cloudy.3 mph100%29.89 "Hg1 mi
9:00 PM82 °FPassing clouds.No wind100%29.89 "Hg1 mi
8:30 PM81 °FDense fog.2 mph100%29.89 "Hg1 mi
8:00 PM81 °FPassing clouds.No wind100%29.86 "Hg1 mi
7:30 PM82 °FPassing clouds.2 mph100%29.86 "Hg1 mi
7:00 PM84 °FPassing clouds.7 mph94%29.83 "Hg1 mi
6:30 PM84 °FPassing clouds.6 mph89%29.83 "Hg1 mi
6:00 PM86 °FScattered clouds.6 mph84%29.80 "Hg2 mi
5:30 PM88 °FScattered clouds.8 mph79%29.80 "Hg2 mi
5:00 PM88 °FScattered clouds.9 mph79%29.80 "Hg2 mi
4:30 PM90 °FScattered clouds.12 mph75%29.80 "Hg1 mi
4:00 PM90 °FScattered clouds.12 mph75%29.80 "Hg1 mi
3:30 PM90 °FScattered clouds.9 mph75%29.83 "Hg1 mi
3:00 PM91 °FScattered clouds.14 mph67%29.83 "Hg1 mi
2:30 PM91 °FBroken clouds.10 mph71%29.83 "Hg1 mi
2:00 PM90 °FDense fog.9 mph75%29.86 "Hg1 mi
1:30 PM90 °FDense fog.7 mph79%29.86 "Hg1 mi
1:00 PM90 °FScattered clouds.7 mph71%29.86 "Hg1 mi
12:30 PM90 °FDense fog.9 mph71%29.89 "Hg1 mi
12:00 PM88 °FMore clouds than sun.5 mph79%29.89 "Hg1 mi
11:30 AM86 °FDense fog.No wind84%29.89 "Hg1 mi
11:00 AM84 °FDense fog.3 mph89%29.92 "Hg1 mi
10:00 AM82 °FFog.5 mph94%29.92 "Hg1 mi
9:30 AM79 °FFog.6 mph100%29.92 "Hg1 mi
9:00 AM79 °FFog.7 mph100%29.92 "Hg1 mi
8:30 AM79 °FFog.5 mph100%29.92 "Hg1 mi
8:00 AM77 °FFog.5 mph100%29.89 "Hg0 mi
7:30 AM77 °FFog.6 mph100%29.89 "Hg0 mi
7:00 AM77 °FLight rain. Partly sunny.No wind94%29.89 "Hg1 mi
6:30 AM79 °FLight rain. Partly sunny.5 mph100%29.86 "Hg1 mi
6:00 AM79 °FLight rain. Passing clouds.8 mph94%29.86 "Hg1 mi
5:30 AM79 °FLight rain. Passing clouds.10 mph94%29.86 "Hg1 mi
5:00 AM79 °FLight rain. Passing clouds.10 mph94%29.86 "Hg2 mi
4:00 AM79 °FLight rain. Passing clouds.12 mph94%29.86 "Hg3 mi
3:30 AM79 °FLight rain. Passing clouds.14 mph94%29.86 "Hg2 mi
2:30 AM79 °FPassing clouds.2 mph94%29.83 "Hg1 mi
2:00 AM79 °FPassing clouds.No wind94%29.86 "Hg1 mi
1:30 AM79 °FPassing clouds.5 mph94%29.86 "Hg1 mi
1:00 AM79 °FPassing clouds.2 mph94%29.86 "Hg1 mi
12:30 AM79 °FWarm.3 mph94%29.86 "Hg1 mi
12:00 AM79 °FPassing clouds.5 mph94%29.86 "Hg1 mi
Weather by CustomWeather, © 2015

See weather overviewHow to use our weather pages